Location: Newark
(3.0500°N, 36.0167°E)
Time: 22:54:23
(UTC+00:00)

Transit 2A Rocket - Pass Details

Date: 21 August 2019
Orbit: 592 x 911 km, 66.7° (Epoch: 16 September)

Event Time Altitude Azimuth Distance (km) Brightness Sun altitude
Rises 02:33:39 0° 10° (N) 2,822 8.3 -15.3°
Reaches altitude 10° 02:36:48 10° 35° (NE) 1,912 7.8 -14.6°
Maximum altitude 02:39:09 14° 69° (ENE) 1,643 8.0 -14.0°
Drops below altitude 10° 02:41:31 10° 103° (ESE) 1,928 8.1 -13.4°
Sets 02:44:42 0° 127° (SE) 2,860 8.6 -12.6°
